sat.trackr.live / text

‹ back to catalog

STARLINK-34014

NORAD 63942 · 2025-098S

PAYLOAD ACTIVE UNKNOWN

§ Identity

Operator
Country
US
Launch date
2025-05-13
Launch site
AFWTR
Launch vehicle
Mass (kg)
RCS (m²)

Purposes: comms

External: N2YO · Heavens-Above · Gunter

§ Orbital elements

Epoch: 2026-05-25T03:11:35.081088Z

Period
96.11 min
Inclination
70.0005°
Eccentricity
0.0002793
Mean motion
14.98344677 rev/d
Perigee alt
570.1 km
Apogee alt
574.0 km
Semi-major
6,950.1 km
B*
5.6206e-4
RAAN
81.6848°
Arg perigee
271.6095°
Mean anomaly
88.4745°
Rev number
5,799

§ Raw data

STARLINK-340141 63942U 25098S   26145.13304492  .00006622  00000+0  56206-3 0  99992 63942  70.0005  81.6848 0002793 271.6095  88.4745 14.98344677 57993

JSON: /api/v1/satellites/63942 · /tle

For live sub-satellite position, see the globe view (requires WebGL).

§ Visibility from observer

Set your observer location to see the next 7 days of passes ≥ 10°. The values pass through the URL so the page stays shareable.

No JS? Fill the form by hand. The geolocation button needs JavaScript.